Flag for Norway Weather past 2 weeks in Horten, Norway

Now
59 °F

Passing clouds.


Feels Like: 54 °F
Forecast: 53 / 57 °F
Wind: 30 mph from Northeast

Location: Oseberg

Current Time: Sep 1, 2015 at 2:26:53 PM

Latest Report: Sep 1, 2015 at 1:50 PM


Visibility: N/A

Pressure: 29.92 "Hg

Humidity: 88%

Dew point: 55 °F

Location of HortenLocation

Historic Weather in Horten — Graph

°F

Horten temperature yesterday

Maximum temperature yesterday: 61 °F (at 2:50 PM)
Minimum temperature yesterday: 55 °F (at 12:50 AM)
Average temperature yesterday: 58 °F

Past Weeks' High & Low Weather Summary

 TemperatureHumidityPressure
High70 °F (Aug 24, 7:50 PM)100% (Aug 17, 12:50 PM)30.18 "Hg (Aug 17, 12:50 PM)
Low54 °F (Aug 27, 9:50 PM)40% (Aug 18, 7:50 PM)29.39 "Hg (Aug 26, 8:20 PM)
Average60 °F83%29.87 "Hg
* Reported Aug 17 12:50 PM — Sep 1 12:20 PM, Horten, Weather by CustomWeather, © 2015

Note: Actual official high and low records may vary slightly from our data, if they occured in-between our weather recording intervals... More about our weather records

Advertising

Horten weather history for previous 24 hours

 ConditionsComfort  
Time TempWeatherWind HumidityBarometerVisibility
12:20 PM
Tue, Sep 1
59 °FPassing clouds.29 mph88%29.92 "HgN/A
11:50 AM59 °FPassing clouds.30 mph88%29.92 "HgN/A
11:20 AM59 °FPassing clouds.29 mph88%29.92 "HgN/A
10:50 AM59 °FPassing clouds.29 mph88%29.92 "HgN/A
10:20 AM59 °FPassing clouds.29 mph88%29.92 "HgN/A
9:50 AM59 °FPassing clouds.31 mph88%29.92 "HgN/A
9:20 AM59 °FPassing clouds.30 mph88%29.92 "HgN/A
8:50 AM59 °FPassing clouds.29 mph88%29.92 "HgN/A
8:20 AM57 °FPassing clouds.30 mph88%29.92 "HgN/A
7:50 AM57 °FPassing clouds.28 mph88%29.92 "HgN/A
7:20 AM57 °FPassing clouds.29 mph88%29.92 "HgN/A
6:50 AM57 °FPassing clouds.29 mph88%29.92 "HgN/A
4:50 AM57 °FPassing clouds.25 mph88%29.95 "HgN/A
3:50 AM57 °FPassing clouds.24 mph88%29.95 "HgN/A
2:50 AM57 °FPassing clouds.20 mph88%29.98 "HgN/A
1:50 AM57 °FPassing clouds.17 mph88%29.98 "HgN/A
12:50 AM57 °FPassing clouds.15 mph94%29.98 "HgN/A
11:50 PM
Mon, Aug 31
57 °FPassing clouds.13 mph88%30.01 "HgN/A
10:50 PM57 °FPassing clouds.6 mph88%30.01 "HgN/A
9:50 PM59 °FPassing clouds.10 mph82%30.01 "HgN/A
8:50 PM59 °FPassing clouds.8 mph77%30.01 "HgN/A
7:50 PM59 °FPassing clouds.5 mph77%30.01 "HgN/A
7:20 PM61 °FPassing clouds.2 mph72%30.01 "HgN/A
6:50 PM61 °FPassing clouds.1 mph72%30.01 "HgN/A
6:20 PM61 °FPassing clouds.No wind72%30.01 "HgN/A
5:50 PM61 °FPassing clouds.No wind72%30.01 "HgN/A
5:20 PM59 °FPassing clouds.2 mph77%30.01 "HgN/A
4:50 PM61 °FPassing clouds.1 mph68%30.01 "HgN/A
3:50 PM61 °FPassing clouds.3 mph68%30.04 "HgN/A
3:20 PM61 °FScattered clouds.5 mph72%30.04 "HgN/A
2:50 PM61 °FPassing clouds.6 mph68%30.01 "HgN/A
2:20 PM59 °FPassing clouds.5 mph77%30.01 "HgN/A
2:02 PM59 °FScattered clouds.5 mph77%30.01 "HgN/A
Weather by CustomWeather, © 2015

See weather overviewHow to use our weather pages